Location: Unspecified
(35.6961°N, 0.0000°E)
Time: 03:15:43
(UTC+00:00)

Altair - Pass Details

Date: 21 May 2019
Orbit: 1501 x 1683 km, 47.2° (Epoch: 16 June)

Event Time Altitude Azimuth Distance (km) Brightness Sun altitude
Rises 04:03:23 0° 232° (SW) 4,888 - -9.3°
Exits shadow 04:06:25 10° 232° (SW) 3,941 9.0 -8.7°
Reaches altitude 10° 04:06:30 10° 232° (SW) 3,916 8.9 -8.7°
Maximum altitude 04:16:39 89° 147° (SSE) 1,686 7.8 -7.0°
Drops below altitude 10° 04:26:51 10° 56° (NE) 3,930 11.6 -5.2°
Sets 04:29:59 0° 57° (ENE) 4,906 13.0 -4.6°
